Content
SEND FEEDBACK

Daily
Averages
Monthly
Summary
United States of America

WHITINGHAM, VERMONT


Home > North America > United States > Vermont
Elevation: 1646 feet     Latitude: 42 47N     Longitude: 072 55W

WEATHER
 
SELECT A DAY
Number of Records: 201,921;   Date Range: 10/28/95 - 12/27/14
 
SHARE

PRINT THIS DATA

[ ← Previous Day ]
WEATHER ALMANAC - APRIL 7, 2014
[ Next Day → ]
[ °C ]   °F
Weather ElementAverageHighLow
Temperature43.3 °F57 °F (11:52 am)26.1 °F (5:52 am)
Dewpoint24.8 °F39 °F (11:52 pm)17.1 °F (1:52 pm)
Humidity56 %92 % (5:52 am)23 % (11:52 am)
Barometer30.07 in30.22 in (1:52 am)29.77 in (11:52 pm)
Wind Speed8.2 mph21.9 mph (10:52 pm)
Wind Gust32.2 mph (10:52 pm)
Weather ElementAverage
Visibility9.9 mi
Wind DirectionENE (77.2 °)

Weather ElementTotal
Precipitation0.01 in
Heating Degree Days23.5 (Base 65)
Averaged from 25 records on April 7, 2014
WEATHER CONDITIONS BREAKOUT
WIND DIRECTION BREAKOUT
WEATHER BY HOUR - APRIL 7, 2014
[ °C ]   °F
Local TimeTemperatureDewpointHumidityBarometerVisibilityWind DirectionWind SpeedGust SpeedPrecipitationEventsConditions
1:52 AM28.9 °F25.0 °F85 %30.22 in10.0 miCalmClear
2:52 AM28.9 °F26.1 °F89 %30.21 in10.0 miCalmClear
3:52 AM28.0 °F25.0 °F88 %30.20 in10.0 miCalmClear
4:52 AM27.0 °F24.1 °F89 %30.20 in10.0 miCalmClear
5:52 AM26.1 °F24.1 °F92 %30.21 in10.0 miCalmClear
6:52 AM26.1 °F24.1 °F92 %30.21 in10.0 miCalmClear
7:52 AM33.1 °F28.0 °F82 %30.22 in10.0 miCalmClear
8:52 AM37.9 °F27.0 °F65 %30.20 in10.0 miESE (120°)4.6 mphClear
9:52 AM46.0 °F25.0 °F44 %30.18 in10.0 miEast (100°)5.8 mphClear
10:52 AM55.9 °F19.0 °F24 %30.16 in10.0 miEast (100°)11.5 mph19.6 mphClear
11:52 AM57.0 °F19.0 °F23 %30.17 in10.0 miSE (130°)9.2 mph20.7 mphClear
12:52 PM55.9 °F18.0 °F23 %30.14 in10.0 miSE (130°)6.9 mph19.6 mphClear
1:52 PM55.0 °F17.1 °F23 %30.10 in10.0 miSSE (160°)8.1 mph17.3 mphClear
2:52 PM55.0 °F21.0 °F27 %30.09 in10.0 miSE (130°)8.1 mph16.1 mphClear
3:52 PM53.1 °F23.0 °F31 %30.07 in10.0 miESE (120°)10.4 mphOvercast
4:52 PM52.0 °F19.9 °F28 %30.06 in10.0 miSE (140°)13.8 mphOvercast
5:52 PM51.1 °F19.0 °F28 %30.04 in10.0 miESE (110°)8.1 mphOvercast
6:52 PM51.1 °F18.0 °F27 %29.99 in10.0 miESE (110°)3.5 mphOvercast
7:52 PM50.0 °F18.0 °F28 %29.97 in10.0 miVariable4.6 mphOvercast
8:52 PM48.9 °F19.9 °F32 %29.94 in10.0 miESE (110°)12.7 mph27.6 mph0.00 inOvercast
9:52 PM44.1 °F28.0 °F53 %29.90 in10.0 miESE (110°)16.1 mph24.2 mph0.00 inRainLight Rain
10:52 PM42.1 °F37.0 °F82 %29.83 in10.0 miEast (90°)21.9 mph32.2 mph0.01 inOvercast
11:04 PM43.0 °F37.0 °F80 %29.81 in10.0 miEast (90°)17.3 mph29.9 mphOvercast
11:31 PM43.0 °F37.9 °F82 %29.79 in9.0 miEast (90°)20.7 mph32.2 mph0.00 inRainLight Rain
11:52 PM44.1 °F39.0 °F82 %29.77 in8.0 miEast (90°)21.9 mph32.2 mph0.00 inOvercast
Hourly data recorded from KAQW, located miles away from Whitingham, Vermont







STORIES FROM OUR PARTNERS